Brainerd, MN

7:11 PM CDT on July 30, 2016 (GMT -0500)
Brainerd-Crow Wing County Regional

Weather History for KBRD - November, 2011

Change the Weather History Date:

Monday, November 7, 2011

  Actual Average Record
Temperature  
Mean Temperature 35 °F -  
Max Temperature 44 °F 43 °F 65 °F (1975)
Min Temperature 24 °F 24 °F -5 °F (1991)
Degree Days  
Heating Degree Days 30    
Moisture  
Dew Point 21 °F    
Average Humidity 56    
Maximum Humidity 84    
Minimum Humidity 39    
Precipitation  
Precipitation 0.00 in - - ()
Sea Level Pressure  
Sea Level Pressure 30.10 in    
Wind  
Wind Speed 15 mph (WSW)    
Max Wind Speed 26 mph    
Max Gust Speed 34 mph    
Visibility 10 miles    
Events      
Averages and records for this station are not official NWS values.
T = Trace of Precipitation, MM = Missing Value Source: NWS Daily Summary

Daily Weather History Graph

Daily Weather History Graph

Search for Another Location

Airport or City:

Trip Planner

Search our weather history database for the weather conditions in past years. The results will help you decide how hot, cold, wet, or windy it might be!

Date:

Astronomy

Nov. 07, 2011 Rise Set
Actual Time 7:06 AM CST 4:53 PM CST
Civil Twilight 6:34 AM CST 5:25 PM CST
Nautical Twilight 5:58 AM CST 6:01 PM CST
Astronomical Twilight 5:23 AM CST 6:36 PM CST
Moon 3:10 PM CST (11/7) 4:02 AM CST (11/7)
Length of Visible Light 10h 51m
Length of Day
9h 47m
Waxing Gibbous, 92% of the Moon is Illuminated
Nov 7
Waxing Gibbous
Nov 10
Full
Nov 18
Last Quarter
Nov 25
New
Dec 2
First Quarter

Hourly Weather History & Observations

Time (CST) Temp. Windchill Dew Point Humidity Pressure Visibility Wind Dir Wind Speed Gust Speed Precip Events Conditions
12:53 AM 39.0 °F 29.6 °F 16.0 °F 39% 29.89 in 10.0 mi SW 18.4 mph 26.5 mph N/A   Clear
1:53 AM 37.9 °F 28.2 °F 16.0 °F 41% 29.90 in 10.0 mi WSW 18.4 mph 25.3 mph N/A   Clear
2:53 AM 37.0 °F 25.1 °F 17.1 °F 44% 29.93 in 10.0 mi WSW 26.5 mph 34.5 mph N/A   Clear
3:53 AM 36.0 °F 26.0 °F 18.0 °F 48% 29.94 in 10.0 mi WSW 17.3 mph 27.6 mph N/A   Clear
4:53 AM 35.1 °F 25.9 °F 19.0 °F 52% 29.97 in 10.0 mi WSW 13.8 mph - N/A   Clear
5:53 AM 35.1 °F 23.8 °F 21.0 °F 57% 29.99 in 10.0 mi WSW 20.7 mph 31.1 mph N/A   Scattered Clouds
6:19 AM 35.6 °F 24.8 °F 21.2 °F 56% 29.97 in 10.0 mi West 19.6 mph 25.3 mph N/A   Overcast
6:53 AM 36.0 °F 27.1 °F 21.9 °F 57% 30.03 in 10.0 mi West 13.8 mph 24.2 mph N/A   Overcast
7:53 AM 36.0 °F 27.5 °F 23.0 °F 59% 30.05 in 10.0 mi WSW 12.7 mph - N/A   Overcast
8:53 AM 37.9 °F 29.2 °F 23.0 °F 55% 30.08 in 10.0 mi West 15.0 mph 25.3 mph N/A   Mostly Cloudy
9:53 AM 39.0 °F 30.3 °F 24.1 °F 55% 30.11 in 10.0 mi West 16.1 mph - N/A   Mostly Cloudy
11:53 AM 43.0 °F 35.4 °F 24.1 °F 47% 30.15 in 10.0 mi WSW 16.1 mph 26.5 mph N/A   Mostly Cloudy
12:53 PM 43.0 °F 35.4 °F 23.0 °F 45% 30.15 in 10.0 mi West 16.1 mph 23.0 mph N/A   Clear
1:53 PM 44.1 °F 36.2 °F 23.0 °F 43% 30.14 in 10.0 mi West 18.4 mph 21.9 mph N/A   Clear
3:53 PM 43.0 °F 36.4 °F 23.0 °F 45% 30.19 in 10.0 mi West 12.7 mph - N/A   Clear
5:53 PM 39.0 °F 34.8 °F 24.1 °F 55% 30.22 in 10.0 mi WNW 5.8 mph - N/A   Clear
6:53 PM 35.1 °F - 23.0 °F 61% 30.24 in 10.0 mi Calm Calm - N/A   Clear
7:53 PM 33.1 °F 28.7 °F 23.0 °F 66% 30.25 in 10.0 mi SW 4.6 mph - N/A   Clear
8:53 PM 30.9 °F - 21.9 °F 69% 30.25 in 10.0 mi Calm Calm - N/A   Clear
9:53 PM 26.1 °F 19.4 °F 19.9 °F 78% 30.25 in 9.0 mi South 5.8 mph - N/A   Clear
10:53 PM 26.1 °F - 21.9 °F 84% 30.24 in 8.0 mi Calm Calm - N/A   Clear
11:53 PM 24.1 °F 19.7 °F 18.0 °F 77% 30.25 in 10.0 mi SW 3.5 mph - N/A   Clear